Home   Weather   Temple   Past weeks

Flag for USA Past Weather in Temple, Texas, USA — Yesterday and Last 2 Weeks

70 °F


Feels Like: 70 °F
Forecast: 62 / 82 °F
Wind: 8 mph from South

Location: Fort Hood AAF Airport

Current Time: Oct 26, 2016 at 10:16:51 AM

Latest Report: Oct 26, 2016 at 9:58 AM

Visibility: 9 mi

Pressure: 30.13 "Hg

Humidity: 82%

Dew Point: 64 °F

Location of TempleLocation

Past Weather in Temple — Graph


Temple Temperature Yesterday

Maximum temperature yesterday: 80 °F (at 4:58 PM)
Minimum temperature yesterday: 62 °F (at 5:58 AM)
Average temperature yesterday: 70 °F

High & Low Weather Summary for the Past Weeks

High90 °F (Oct 16, 3:58 PM)100% (Oct 25, 7:03 AM)30.29 "Hg (Oct 25, 7:03 AM)
Low48 °F (Oct 22, 6:58 AM)27% (Oct 11, 4:58 PM)29.70 "Hg (Oct 17, 5:58 PM)
Average72 °F70%30.02 "Hg
* Reported Oct 11 8:58 AM — Oct 26 8:58 AM, Temple, Weather by CustomWeather, © 2016

Note: Actual official high and low records may vary slightly from our data, if they occured in-between our weather recording intervals... More about our weather records


Temple Weather History for the Previous 24 Hours

Scroll right to see more
Time TempWeatherWind HumidityBarometerVisibility
8:58 AM
Wed, Oct 26
64 °FPassing clouds.7 mph95%30.09 "Hg8 mi
7:58 AM61 °FFog.5 mph97%30.08 "Hg6 mi
6:58 AM61 °FClear.3 mph96%30.08 "Hg7 mi
5:58 AM61 °FClear.3 mph95%30.07 "Hg8 mi
4:58 AM62 °FClear.6 mph94%30.06 "Hg8 mi
3:58 AM63 °FClear.5 mph89%30.07 "Hg10 mi
2:58 AM64 °FClear.5 mph87%30.07 "Hg10 mi
1:58 AM65 °FClear.6 mph84%30.07 "Hg10 mi
12:58 AM66 °FOvercast.7 mph80%30.07 "Hg10 mi
11:58 PM
Tue, Oct 25
68 °FPassing clouds.8 mph76%30.07 "Hg10 mi
10:58 PM68 °FPartly cloudy.6 mph76%30.11 "Hg10 mi
9:58 PM70 °FPassing clouds.6 mph75%30.11 "Hg10 mi
8:58 PM72 °FClear.6 mph70%30.10 "Hg10 mi
7:58 PM72 °FPassing clouds.5 mph64%30.09 "Hg10 mi
6:58 PM75 °FLight rain. Passing clouds.5 mph57%30.06 "Hg7 mi
5:58 PM80 °FMore clouds than sun.10 mph47%30.05 "Hg10 mi
4:58 PM80 °FPassing clouds.5 mph49%30.06 "Hg10 mi
3:58 PM80 °FPassing clouds.7 mph49%30.07 "Hg10 mi
2:58 PM80 °FScattered clouds.8 mph51%30.09 "Hg10 mi
1:58 PM79 °FScattered clouds.7 mph54%30.11 "Hg10 mi
12:58 PM78 °FScattered clouds.9 mph60%30.12 "Hg10 mi
11:58 AM75 °FScattered clouds.12 mph68%30.14 "Hg10 mi
10:58 AM71 °FScattered clouds.8 mph79%30.18 "Hg10 mi
Weather by CustomWeather, © 2016

See weather overviewHow to use our weather pages